Weather History for KIAB - November, 2012

Change the Weather History Date:

Saturday, November 17, 2012

  Actual Average Record
Temperature  
Mean Temperature 50 °F -  
Max Temperature 60 °F 54 °F 77 °F (1999)
Min Temperature 39 °F 34 °F 16 °F (2014)
Degree Days  
Heating Degree Days 16    
Moisture  
Dew Point 29 °F    
Average Humidity 50    
Maximum Humidity 72    
Minimum Humidity 30    
Precipitation  
Precipitation 0.00 in - - ()
Sea Level Pressure  
Sea Level Pressure 30.29 in    
Wind  
Wind Speed 11 mph (SSE)    
Max Wind Speed 26 mph    
Max Gust Speed 30 mph    
Visibility 10 miles    
Events      
Averages and records for this station are not official NWS values.
T = Trace of Precipitation, MM = Missing Value Source: NWS Daily Summary

Daily Weather History Graph

Daily Weather History Graph

Search for Another Location

Airport or City:

Trip Planner

Search our weather history database for the weather conditions in past years. The results will help you decide how hot, cold, wet, or windy it might be!

Date:

Astronomy

Nov. 17, 2012 Rise Set
Actual Time 7:11 AM CST 5:16 PM CST
Civil Twilight 6:43 AM CST 5:44 PM CST
Nautical Twilight 6:11 AM CST 6:16 PM CST
Astronomical Twilight 5:40 AM CST 6:47 PM CST
Moon 10:57 AM CST (11/17) 9:27 PM CST (11/17)
Length of Visible Light 11h 00m
Length of Day
10h 04m
Waxing Crescent, 20% of the Moon is Illuminated
Nov 17
Waxing Crescent
Nov 20
First Quarter
Nov 28
Full
Dec 6
Last Quarter
Dec 13
New

Hourly Weather History & Observations

Time (CST) Temp. Windchill Dew Point Humidity Pressure Visibility Wind Dir Wind Speed Gust Speed Precip Events Conditions
12:55 AM 42.1 °F 37.7 °F 31.3 °F 66% 30.34 in 10.0 mi SSE 6.9 mph - N/A   Clear
1:55 AM 40.5 °F 35.8 °F 31.1 °F 69% 30.34 in 10.0 mi SSE 6.9 mph - N/A   Clear
2:55 AM 39.6 °F 34.0 °F 30.9 °F 71% 30.33 in 10.0 mi SSE 8.1 mph - N/A   Clear
3:55 AM 39.9 °F 34.5 °F 31.1 °F 71% 30.32 in 10.0 mi SE 8.1 mph - N/A   Clear
4:55 AM 40.6 °F 34.3 °F 31.3 °F 69% 30.32 in 10.0 mi SSE 10.4 mph - N/A   Clear
5:55 AM 40.3 °F 35.5 °F 30.9 °F 69% 30.33 in 10.0 mi SE 6.9 mph - N/A   Clear
6:55 AM 39.4 °F 34.5 °F 30.9 °F 72% 30.33 in 10.0 mi SSE 6.9 mph - N/A   Clear
7:55 AM 40.1 °F 34.7 °F 31.6 °F 72% 30.34 in 10.0 mi SSE 8.1 mph - N/A   Clear
8:55 AM 46.2 °F 40.8 °F 32.0 °F 58% 30.35 in 10.0 mi SSE 11.5 mph - N/A   Clear
9:55 AM 51.1 °F - 31.8 °F 48% 30.34 in 10.0 mi South 19.6 mph 24.2 mph N/A   Clear
10:55 AM 55.2 °F - 33.1 °F 43% 30.34 in 10.0 mi South 19.6 mph - N/A   Clear
11:55 AM 57.0 °F - 30.6 °F 37% 30.32 in 10.0 mi South 26.5 mph 29.9 mph N/A   Clear
12:55 PM 59.0 °F - 30.6 °F 34% 30.29 in 10.0 mi SSE 20.7 mph - N/A   Clear
1:55 PM 60.1 °F - 28.0 °F 30% 30.26 in 10.0 mi SSE 18.4 mph - N/A   Clear
2:55 PM 60.4 °F - 28.4 °F 30% 30.23 in 10.0 mi SSE 18.4 mph 28.8 mph N/A   Clear
3:55 PM 59.7 °F - 28.9 °F 31% 30.22 in 10.0 mi SSE 19.6 mph - N/A   Clear
4:55 PM 57.4 °F - 27.5 °F 32% 30.22 in 10.0 mi SSE 18.4 mph - N/A   Clear
5:55 PM 53.1 °F - 27.3 °F 37% 30.22 in 10.0 mi SSE 10.4 mph - N/A   Clear
6:55 PM 50.4 °F - 27.7 °F 42% 30.23 in 10.0 mi SSE 11.5 mph - N/A   Clear
7:55 PM 49.1 °F - 26.2 °F 41% 30.25 in 10.0 mi SSE 11.5 mph - N/A   Clear
8:55 PM 48.0 °F - 26.2 °F 43% 30.24 in 10.0 mi SE 11.5 mph - N/A   Clear
9:55 PM 46.0 °F 41.4 °F 26.6 °F 47% 30.25 in 10.0 mi SSE 9.2 mph - N/A   Clear
10:55 PM 48.2 °F - 25.7 °F 42% 30.24 in 10.0 mi SSE 12.7 mph - N/A   Clear
11:55 PM 46.6 °F - 27.0 °F 46% 30.24 in 10.0 mi SE 10.4 mph - N/A   Clear